User: anonymous   Login
Location: Fort Wayne
(41.1310°N, 85.1290°W)
Time: 00:51:20
(UTC-05:00)
Language:

Cosmos 2227 Rocket - Orbit

View from above orbital plane
View from above orbital plane
View from above satellite
View from above satellite

Ground track
Ground track

The orbit data is extracted from the following two-line orbital elements,

1 22285U 92093B   17017.51946542  .00000269  00000-0  16354-3 0  9993
2 22285  71.0208 168.3423 0004771 330.5083  29.5770 14.15005220241228
Epoch (UTC): 17 January 2017 12:28:01
Eccentricity: 0.0004771
inclination: 71.0208°
perigee height: 839 km
apogee height: 846 km
right ascension of ascending node: 168.3423°
argument of perigee: 330.5083°
revolutions per day: 14.15005220
mean anomaly at epoch: 29.5770°
orbit number at epoch: 24122

The dashed part of the orbit path shows where the satellite is in the earth's shadow,  

DLR